Gaylord, MI

11:14 AM EDT on April 25, 2018 (GMT -0400)
Otsego County

Weather History for KGLR - April, 2013

Change the Weather History Date:

Tuesday, April 2, 2013

  Actual Average Record
Temperature  
Mean Temperature 20 °F -  
Max Temperature 28 °F 45 °F 77 °F (1963)
Min Temperature 12 °F 25 °F 12 °F (2013)
Degree Days  
Heating Degree Days 45    
Moisture  
Dew Point 13 °F    
Average Humidity 70    
Maximum Humidity 93    
Minimum Humidity 51    
Precipitation  
Precipitation 0.01 in - - ()
Sea Level Pressure  
Sea Level Pressure 30.10 in    
Wind  
Wind Speed 6 mph (WNW)    
Max Wind Speed 17 mph    
Max Gust Speed 26 mph    
Visibility 7 miles    
Events Snow    
Averages and records for this station are not official NWS values.
T = Trace of Precipitation, MM = Missing Value Source: NWS Daily Summary

Daily Weather History Graph

Daily Weather History Graph

Search for Another Location

Airport or City:

Astronomy

Apr. 02, 2013 Rise Set
Actual Time 7:17 AM EDT 8:08 PM EDT
Civil Twilight 6:47 AM EDT 8:37 PM EDT
Nautical Twilight 6:11 AM EDT 9:13 PM EDT
Astronomical Twilight 5:35 AM EDT 9:50 PM EDT
Moon 2:23 AM EDT (4/2) 11:56 AM EDT (4/2)
Length of Visible Light 13h 50m
Length of Day
12h 51m
Waning Gibbous, 56% of the Moon is Illuminated
Apr 2
Waning Gibbous
Apr 3
Last Quarter
Apr 10
New
Apr 18
First Quarter
Apr 25
Full

Hourly Weather History & Observations

Time (EDT) Temp. Windchill Dew Point Humidity Pressure Visibility Wind Dir Wind Speed Gust Speed Precip Events Conditions
12:53 AM 12.0 °F 5.9 °F 6.1 °F 77% 30.07 in 10.0 mi SW 3.5 mph - N/A   Clear
1:53 AM 12.9 °F 6.9 °F 9.0 °F 84% 30.07 in 10.0 mi WSW 3.5 mph - N/A   Overcast
2:53 AM 16.0 °F 10.4 °F 10.0 °F 77% 30.06 in 9.0 mi SW 3.5 mph - N/A   Overcast
3:29 AM 15.8 °F 10.2 °F 10.4 °F 79% 29.98 in 5.0 mi SW 3.5 mph - 0.00 in Snow Light Snow
3:43 AM 17.6 °F 12.3 °F 12.2 °F 79% 29.98 in 9.0 mi West 3.5 mph - 0.00 in Snow Light Snow
3:53 AM 17.1 °F 10.0 °F 10.9 °F 77% 30.06 in 4.0 mi WSW 4.6 mph - 0.00 in Snow Light Snow
3:57 AM 17.6 °F 9.3 °F 12.2 °F 79% 29.98 in 1.5 mi Variable 5.8 mph - 0.00 in Snow Light Snow
4:19 AM 19.4 °F 10.4 °F 17.6 °F 93% 29.98 in 3.0 mi West 6.9 mph - 0.01 in Snow Light Snow
4:38 AM 15.8 °F 7.2 °F 12.2 °F 86% 29.98 in 9.0 mi SSW 5.8 mph - 0.01 in   Mostly Cloudy
4:53 AM 15.1 °F 9.4 °F 10.9 °F 84% 30.05 in 10.0 mi SW 3.5 mph - 0.01 in   Mostly Cloudy
5:53 AM 12.9 °F - 10.0 °F 88% 30.06 in 10.0 mi Calm Calm - 0.00 in   Partly Cloudy
6:53 AM 12.9 °F - 10.0 °F 88% 30.08 in 10.0 mi Calm Calm - N/A   Partly Cloudy
7:53 AM 12.0 °F - 9.0 °F 88% 30.10 in 10.0 mi Calm Calm - N/A   Clear
8:53 AM 21.0 °F 12.4 °F 15.1 °F 78% 30.11 in 10.0 mi WNW 6.9 mph - N/A   Mostly Cloudy
9:53 AM 23.0 °F 13.1 °F 15.1 °F 72% 30.12 in 2.5 mi WNW 9.2 mph 17.3 mph 0.00 in Snow Light Snow
10:02 AM 23.0 °F 13.9 °F 15.8 °F 74% 30.05 in 1.8 mi WNW 8.1 mph 16.1 mph 0.00 in Snow Light Snow
10:06 AM 24.8 °F 16.1 °F 17.6 °F 74% 30.05 in 3.0 mi WNW 8.1 mph 16.1 mph 0.00 in Snow Light Snow
10:39 AM 24.8 °F 12.9 °F 15.8 °F 69% 30.05 in 3.0 mi WNW 13.8 mph 24.2 mph 0.00 in Snow Light Snow
10:53 AM 25.0 °F 14.8 °F 15.1 °F 66% 30.12 in 3.0 mi WNW 10.4 mph 20.7 mph 0.00 in Snow Light Snow
11:22 AM 24.8 °F 12.4 °F 12.2 °F 59% 30.06 in 8.0 mi West 15.0 mph 21.9 mph 0.00 in Snow Light Snow
11:53 AM 25.0 °F 12.6 °F 14.0 °F 63% 30.14 in 8.0 mi West 15.0 mph 24.2 mph 0.00 in Snow Light Snow
12:03 PM 24.8 °F 13.4 °F 15.8 °F 69% 30.07 in 1.8 mi WNW 12.7 mph 23.0 mph 0.00 in Snow Light Snow
12:14 PM 26.6 °F 17.5 °F 15.8 °F 64% 30.07 in 4.0 mi WNW 9.2 mph 23.0 mph 0.00 in Snow Light Snow
12:22 PM 26.6 °F 16.2 °F 15.8 °F 64% 30.07 in 2.5 mi NW 11.5 mph 18.4 mph 0.00 in Snow Light Snow
12:30 PM 24.8 °F 13.4 °F 17.6 °F 74% 30.07 in 1.0 mi WNW 12.7 mph 20.7 mph 0.00 in Snow Light Snow
12:38 PM 26.6 °F 16.2 °F 15.8 °F 64% 30.07 in 3.0 mi West 11.5 mph 21.9 mph 0.00 in Snow Light Snow
1:53 PM 28.0 °F 18.1 °F 12.0 °F 51% 30.14 in 10.0 mi WNW 11.5 mph 25.3 mph 0.00 in   Overcast
2:53 PM 27.0 °F 16.1 °F 12.0 °F 53% 30.15 in 10.0 mi West 12.7 mph 24.2 mph 0.00 in   Overcast
3:53 PM 27.0 °F 14.3 °F 12.9 °F 56% 30.16 in 8.0 mi West 17.3 mph 24.2 mph 0.00 in Snow Light Snow
4:14 PM 24.8 °F 14.0 °F 17.6 °F 74% 30.09 in 1.5 mi WNW 11.5 mph 26.5 mph 0.00 in Snow Light Snow
4:32 PM 26.6 °F 19.1 °F 17.6 °F 69% 30.10 in 3.0 mi Variable 6.9 mph - 0.00 in Snow Light Snow
4:43 PM 26.6 °F 18.2 °F 17.6 °F 69% 30.10 in 2.0 mi WNW 8.1 mph 17.3 mph 0.00 in Snow Light Snow
4:47 PM 26.6 °F 16.2 °F 17.6 °F 69% 30.10 in 3.0 mi WNW 11.5 mph 19.6 mph 0.00 in Snow Light Snow
4:53 PM 25.0 °F 16.3 °F 17.1 °F 72% 30.17 in 2.5 mi WNW 8.1 mph 19.6 mph 0.00 in Snow Light Snow
5:04 PM 26.6 °F 17.5 °F 15.8 °F 64% 30.10 in 8.0 mi NW 9.2 mph 18.4 mph 0.00 in Snow Light Snow
5:25 PM 26.6 °F 16.8 °F 12.2 °F 55% 30.11 in 9.0 mi NW 10.4 mph 18.4 mph 0.00 in Snow Light Snow
5:53 PM 26.1 °F 18.4 °F 10.9 °F 53% 30.19 in 10.0 mi Variable 6.9 mph 18.4 mph 0.00 in   Overcast
6:53 PM 26.1 °F 18.4 °F 12.0 °F 55% 30.20 in 10.0 mi West 6.9 mph 17.3 mph N/A   Overcast
7:53 PM 26.1 °F 18.4 °F 10.9 °F 53% 30.21 in 10.0 mi Variable 6.9 mph 17.3 mph N/A   Overcast
8:53 PM 24.1 °F 17.0 °F 12.0 °F 60% 30.22 in 10.0 mi NW 5.8 mph - N/A   Overcast
9:16 PM 24.8 °F 16.9 °F 12.2 °F 59% 30.16 in 10.0 mi NW 6.9 mph - N/A   Overcast
9:53 PM 23.0 °F 17.0 °F 12.9 °F 65% 30.24 in 10.0 mi NW 4.6 mph - N/A   Mostly Cloudy
10:00 PM 23.0 °F 18.4 °F 12.2 °F 63% 30.17 in 10.0 mi Variable 3.5 mph - N/A   Scattered Clouds
10:53 PM 21.9 °F 14.5 °F 10.9 °F 63% 30.24 in 10.0 mi Variable 5.8 mph - N/A   Clear
11:53 PM 19.9 °F - 10.0 °F 65% 30.25 in 10.0 mi Calm Calm - N/A   Clear